Regional Weather Roundup
Issued by NWS

Home | Current Version | Previous Version | Text Only | Print | Product List | Glossary Off
Versions: 1 2 3 4 5 6 7 8 9 10 11 12 13 14 15 16 17 18 19 20 21 22 23 24 25 26 27 28 29 30 31 32 33 34 35 36 37 38 39 40 41 42 43 44 45 46 47 48 49 50

000
ASUS43 KMKX 261559
RWRWI

WISCONSIN REGIONAL WEATHER ROUNDUP
NATIONAL WEATHER SERVICE MILWAUKEE/SULLIVAN WI
1100 AM CDT THU MAR 26 2015

NOTE: "FAIR" INDICATES FEW OR NO CLOUDS BELOW 12,000 FEET WITH NO
SIGNIFICANT WEATHER AND/OR OBSTRUCTIONS TO VISIBILITY.

WIZ001-002-006>008-014>016-023>028-261700-
NORTHWEST WISCONSIN

CITY           SKY/WX    TMP DP  RH WIND       PRES   REMARKS
SUPERIOR ARPT  CLOUDY    28  14  57 N10       30.13S WCI  18
ASHLAND        CLOUDY    26  13  57 N13       30.11R WCI  15
HAYWARD        CLOUDY    24  12  60 N9G22     30.07R WCI  14
SIREN          CLOUDY    28  15  59 N13       30.10R WCI  17
CUMBERLAND     CLOUDY    28  14  54 N14       30.07R WCI  17
RICE LAKE      CLOUDY    28  16  61 NW10G18   30.09R WCI  18
CHETEK         CLOUDY    29  18  65 NW9       30.07R WCI  20
LADYSMITH      CLOUDY    28  17  64 N14G21    30.05R WCI  16
EAU CLAIRE     NOT AVBL
MENOMONIE      CLOUDY    32  17  55 NW14      30.07R WCI  22
NEW RICHMOND   CLOUDY    31  17  56 N13       30.10R WCI  21
OSCEOLA        CLOUDY    31  17  55 NW13      30.13R WCI  21
$$

WIZ003>005-009-010-017-018-261700-
NORTH CENTRAL WISCONSIN

CITY           SKY/WX    TMP DP  RH WIND       PRES   REMARKS
MANITOWISH WTR FLURRIES  21  13  71 N12G21    29.98R WCI   9
ARBOR VITAE    LGT SNOW  23  16  74 NW14      29.97R WCI  11
WOODRUFF       LGT SNOW  23  16  74 NW14      29.97R WCI  11
RHINELANDER    CLOUDY    24  14  65 NW12      29.96R WCI  13
EAGLE RIVER    FLURRIES  22  12  66 N13G20    29.95R WCI  10
LAND O LAKES   LGT SNOW  22  15  77 N12G18    29.96R WCI  10
PHILLIPS       FLURRIES  22  14  72 NW10G17   30.00R WCI  11
TOMAHAWK       CLOUDY    24  13  63 NW16G23   29.98R WCI  10
MEDFORD        FLURRIES  25  16  69 NW14      29.98S WCI  13
MERRILL        CLOUDY    26  16  64 N14G20    29.98R WCI  15
$$

WIZ029-030-035-036-043>047-261700-
CENTRAL WISCONSIN

CITY           SKY/WX    TMP DP  RH WIND       PRES   REMARKS
WAUSAU         FLURRIES  27  17  66 N12G21    29.97R WCI  17
MOSINEE        NOT AVBL
MARSHFIELD     CLOUDY    30  20  66 NW16      29.99R WCI  19
STEVENS POINT  CLOUDY    28  18  65 N10       29.98R WCI  19
WAUPACA        CLOUDY    34  21  60 W9        29.97R WCI  27
WAUTOMA        NOT AVBL
WISC RAPIDS    CLOUDY    31  19  61 NW10G22   30.00R WCI  22
CAMP DOUGLAS   NOT AVBL
$$

WIZ011>013-019>022-031-037>040-048>050-261700-
NORTHEAST WISCONSIN

CITY           SKY/WX    TMP DP  RH WIND       PRES   REMARKS
ANTIGO         CLOUDY    24  18  77 NW14      29.94R WCI  12
SHAWANO        CLOUDY    33  20  59 W7        29.96R WCI  27
OCONTO         CLOUDY    32  20  62 NW8       29.94R WCI  25
STURGEON BAY   CLOUDY    32  19  59 NW15      29.94S WCI  22
GREEN BAY      CLOUDY    33  23  66 NW10      29.95R WCI  25
MANITOWOC      NOT AVBL
APPLETON       CLOUDY    32  19  59 NW13      29.96R WCI  22
CLINTONVILLE   CLOUDY    32  19  59 NW14      29.96R WCI  22
OSHKOSH        CLOUDY    33  21  61 NW16G25   29.96R WCI  23
$$

WIZ032>034-041-042-053>061-261700-
SOUTHWEST WISCONSIN

CITY           SKY/WX    TMP DP  RH WIND       PRES   REMARKS
LA CROSSE      CLOUDY    34  20  56 N14       30.07R WCI  25
SPARTA         CLOUDY    32  19  59 NW12G18   30.05R WCI  23
VIROQUA        CLOUDY    32  23  69 NW14      30.02R WCI  22
BOSCOBEL       CLOUDY    35  21  56 NW9       30.05S WCI  28
PRAIRIE DU CHI CLOUDY    33  20  58 NW13G21   30.07R WCI  24
PLATTEVILLE    CLOUDY    33  23  66 NW15G23   30.03R WCI  23
$$

WIZ056-057-062-063-064-067-068-261700-
SOUTH CENTRAL WISCONSIN

CITY           SKY/WX    TMP DP  RH WIND       PRES   REMARKS
REEDSBURG      CLOUDY    34  21  60 NW9G18    29.99S WCI  26
BARABOO/DELLS  CLOUDY    33  20  57 NW13G22   29.99R WCI  24
LONE ROCK      NOT AVBL
MINERAL POINT  CLOUDY    34  23  64 NW14      30.01R WCI  24
MADISON        CLOUDY    35  20  54 NW13G20   29.99R WCI  26
MIDDLETON      CLOUDY    36  21  55 NW10G17   30.00R WCI  28
WATERTOWN      CLOUDY    35  22  59 NW15      29.96S WCI  26
MONROE         CLOUDY    36  25  64 NW12      30.00R WCI  27
JANESVILLE     CLOUDY    37  25  60 NW12      29.99S WCI  30
$$

WIZ051-052-058>065-066-070>072-261700-
SOUTHEAST WISCONSIN

CITY           SKY/WX    TMP DP  RH WIND       PRES   REMARKS
MILWAUKEE      CLOUDY    38  19  46 NW15      29.97R WCI  29
WAUKESHA       CLOUDY    34  21  60 NW16      29.97R WCI  23
MILWAUKEE/TIMM CLOUDY    37  19  48 NW16      29.97R WCI  28
RACINE         CLOUDY    38  22  52 W8        29.98R WCI  32
BURLINGTON     CLOUDY    36  22  57 NW12      29.97S WCI  28
KENOSHA        CLOUDY    39  25  57 W14       29.96S WCI  31
FOND DU LAC    CLOUDY    34  22  61 NW15      29.96R WCI  24
SHEBOYGAN      CLOUDY    35  23  61 NW13      29.94R WCI  26
WEST BEND      CLOUDY    34  21  60 NW10G16   29.95R WCI  26
JUNEAU         CLOUDY    33  22  62 NW13G18   29.97S WCI  24
$$

LSZ147-162-261700-
LAKE SUPERIOR

STATION/POSITION TIME  TEMP    WIND        PRES    WAVE
                       AIR SEA DIR/SP/G            HT/PER
                 (UTC) (F)     (DEG/KT/KT) (MB)    (FT/S)
DEVILS ISLAND    1500   20     340/ 19/ 20 1020.9R
PORT WING        1540   23      10/  8/ 13 1020.7R
SAXON HARBOR     1400   24     360/ 19/ 23 1018.3
$$

LMZ867-665-643>646-261700-
LAKE MICHIGAN

STATION/POSITION TIME  TEMP    WIND        PRES    WAVE
                       AIR SEA DIR/SP/G            HT/PER
                 (UTC) (F)     (DEG/KT/KT) (MB)    (FT/S)
NORTHPORT PIER   1503   31     310/ 18/ 23 1012.9R
SISTER BAY       1532   31     350/ 22/ 25   N/A
KEWAUNEE LAKESHO 1500   34     310/ 11/ 16 1012.3R
SHEBOYGAN LAKESH 1500   36     300/  9/ 12 1014.5R
PORT WASHINGTON  1500   37     310/  9/ 13 1014.6F
MILWAUKEE LAKESH 1500   37     310/ 10/ 15   N/A
KENOSHA   LAKESH 1500   37     310/  9/ 16 1014.9R
$$

TC  - TEMPERATURE IN CELSIUS
VSB - VISIBILITY IN STATUTE MILES
WCI - WIND CHILL INDEX
HX  - HEAT INDEX



USA.gov is the U.S. government's official web portal to all federal, state and local government web resources and services.